Regional Weather Roundup
Issued by NWS Goodland, KS

Home | Current Version | Previous Version | Graphics & Text | Print | Product List | Glossary On
Versions: 1 2 3 4 5 6 7 8 9 10 11 12 13 14 15 16 17 18 19 20 21 22 23 24 25 26 27 28 29 30 31 32 33 34 35 36 37 38 39 40 41 42 43 44 45 46 47 48 49 50
000
ASUS43 KGLD 251008
RWRGLD

GOODLAND FORECAST AREA HOURLY WEATHER ROUNDUP
NATIONAL WEATHER SERVICE GOODLAND KS
400 AM MDT FRI JUL 25 2014

...OFFICIAL OBSERVATIONS...

CITY           SKY/WX    TMP DP  RH WIND       PRES   REMARKS
GOODLAND KS    CLOUDY    73  53  49 W8        29.91R
HILL CITY KS   CLOUDY    82  63  52 SW14      29.83F
IMPERIAL NEB   PTCLDY    67  58  72 SW5       29.87R
MCCOOK NEB     PTCLDY    70  57  63 SW10      29.81S
AKRON CO       PTCLDY    70  52  52 W13       29.98S
BURLINGTON CO  MOCLDY    69  54  58 NW7       29.95S
LIMON CO       MOCLDY    58  55  90 N5        30.06F
$$

...UNOFFICIAL OBSERVATIONS...

CITY           SKY/WX    TMP DP  RH WIND       PRES   REMARKS
COLBY KS       PTCLDY    79  57  47 S12       29.88R
GOVE KS          N/A     81  32  17 MISG        N/A
LENORA KS        N/A     80  32  17 MISG        N/A
NORTON KS      CLEAR     81  54  39 S17G24    29.80S
OBERLIN KS     FAIR      77  54  44 SW9       29.82F
SHARON SPRINGS   N/A     77  57  49 SW6         N/A
TRIBUNE KS     MOCLDY    77 N/A N/A S16       29.91F
WAKEENEY KS      N/A     79  60  52 MISG        N/A
KIT CARSON CO    N/A     69  52  54 CALM        N/A
WRAY CO          N/A     66  57  72 W6        29.90
YUMA CO          N/A     62  55  77 W8          N/A
$$



USA.gov is the U.S. government's official web portal to all federal, state and local government web resources and services.